STARLINK-33819, 63494

Orbit data source: Space-Track

STARLINK-33819, 63494 is a payload satellite owned by SpaceX/Seattle (US) in LEO that was launched on Mon, 07 Apr 2025 UTC via an FALCON 9 launch vehicle from the Air Force Western Test Range (AFWTR). Payload-class satellites include a variety of spacecraft equipped with specific instruments for various scientific and technological missions. These include communications satellites like Starlink; space stations such as the ISS; scientific satellites like the Hubble; Earth observation satellites from companies like Planet Labs, Umbra, and HawkEye 360; GPS; miniature CubeSats for education and research; and military/defense satellites.

Loading next visibility...
Identifier
63494, 2025-071B
Orbit
LEO
Country
Flag of USUS
Related business
Manufacturer
SpaceX/Seattle
Mission
Operational Commercial Communications
Bus & Motor
STARLINK V2MO, Unknown motor
Mass
575 kg wet, ~530 kg dry
Launch date (UTC)
2025-04-07 (1 year ago)
Launch vehicle
FALCON 9
Launch site
Air Force Western Test Range (AFWTR)
Object type
Payload
Rocket body
Debris
Shape & HBR
Box + 1 Pan, 17.7 m
Radar Cross Section
41.120 m², Large (>1 m²)

Expand to show TLE details & history
Last TLE update: 17 hours ago

TLE from 17 hours ago
0 STARLINK-33819
1 63494U 25071B   26262.76044584  .00021252  00000-0  63811-3 0  9991
2 63494  53.1596 313.4732 0001736  46.8143 313.3004 15.34410337 82536
Epoch: 2026-09-19T18:15Z
TLE epoch observation values (Epoch: 2026-09-19T18:15:02.520Z)
Latitude
-0.00006°
Longitude
41.0483°
Altitude
462.759 km
Speed
7.637 km/s
True Right ascension
20h 53m 53s
True Declination
0° 00' 00"
Sunlit
Object was in full shadow at epoch
Visualization orbit readout
Latitude
Unknown
Longitude
Unknown
Altitude
Unknown
Speed
Unknown
Apparent Right ascension
Unknown
Apparent Declination
Unknown
Sunlit
N/A
Visualization observer readout
Local Sidereal Time
03:43:18
Azimuth
Unknown
Elevation
Unknown
Doppler factor
Unknown
Orbital elements
Apogee altitude
464.117 km
Perigee altitude
461.742 km
Semi-major axis
6,841.066 km
Eccentricity
0.00017
Inclination
53.1596°
RAAN
313.4732°
Arg. of periapsis
46.8143°
True anomaly
313.28592°
Mean anomaly
313.3004°
Eccentric anomaly
313.29316°
Mean motion
3.83581 °/min
Orbital period
93.85 mins
BSTAR
0.00063811
Loading maneuver chart data...
Computing Atmospheric mass density...
Loading historical data...
Loading historical data...
Loading historical data...
Loading historical data...
Loading historical data...
Loading historical data...
Loading historical data...

Documentation

Showing up to 5 results
|